Regional Weather Roundup
Issued by NWS Sioux Falls, SD

Home | Current Version | Previous Version | Graphics & Text | Print | Product List | Glossary On
Versions: 1 2 3 4 5 6 7 8 9 10 11 12 13 14 15 16 17 18 19 20 21 22 23 24 25 26 27 28 29 30 31 32 33 34 35 36 37 38 39 40 41 42 43 44 45 46 47 48 49 50
343
ASUS43 KFSD 280310
RWRFSD

WEATHER ROUNDUP FOR SE SOUTH DAKOTA/SW MINNESOTA/NW IOWA
NATIONAL WEATHER SERVICE SIOUX FALLS SD
1000 PM CDT FRI MAY 27 2016

NOTE: "FAIR" INDICATES FEW OR NO CLOUDS BELOW 12,000 FEET WITH NO
SIGNIFICANT WEATHER AND OR OBSTRUCTIONS TO VISIBILITY.


SDZ038>040-050-052>070-280400-
SOUTHEAST SOUTH DAKOTA

CITY           SKY/WX    TMP DP  RH WIND       PRES   REMARKS
BROOKINGS      PTCLDY    63  56  78 N9        29.76R
CHAMBERLAIN    MOCLDY    64  58  81 N3        29.78R
HURON          CLOUDY    61  58  90 N7        29.77R
MADISON        CLOUDY    63  63 100 N7        29.76R
MITCHELL       MOCLDY    66  60  81 NW7       29.76R
SIOUX FALLS    CLOUDY    64  57  78 N6        29.74R
WINNER         FAIR      62  53  72 NE5       29.80R
YANKTON        CLOUDY    66  59  77 N7        29.71R
$$

MNZ071-072-080-081-089-090-097-098-280400-
SOUTHWEST MINNESOTA

CITY           SKY/WX    TMP DP  RH WIND       PRES   REMARKS
FAIRMONT       PTCLDY    68  61  77 E6        29.75R
JACKSON        CLOUDY    64  59  82 NE6       29.76R
LUVERNE        PTCLDY    66  54  63 NE6       29.74R
MARSHALL       CLOUDY    68  58  70 E12       29.75R
MONTEVIDEO     PTCLDY    64  59  82 SE9       29.77R
PIPESTONE      CLOUDY    70  55  60 E5        29.76R
REDWOOD FALLS  PTCLDY    63  60  90 E5        29.75R
TRACY          PTCLDY    65  58  79 E5        29.75S
WINDOM         CLOUDY    66  59  77 CALM      29.76R
WORTHINGTON    CLOUDY    66  60  81 NE10      29.75R
$$

IAZ001>003-012>014-020>022-031-032-NEZ013-014-SDZ071-280400-
NORTHWEST IOWA

CITY           SKY/WX    TMP DP  RH WIND       PRES   REMARKS
CHEROKEE       CLOUDY    65  63  90 CALM      29.72R
DENISON        CLOUDY    68  64  88 SE7G16    29.70S
ESTHERVILLE    CLOUDY    66  60  81 NE10      29.74R
LE MARS        CLOUDY    70  63  78 CALM      29.73R
ORANGE CITY    CLOUDY    72  57  60 CALM      29.73R
SHELDON        PTCLDY    68  61  77 NE6       29.71R
SIOUX CITY     CLOUDY    73  59  61 CALM      29.71R
SPENCER        CLOUDY    67  59  75 N7        29.73R
STORM LAKE     CLOUDY    70  59  68 S5        29.74R
$$

ABBREVIATIONS USED IN REMARKS
   TC - TEMPERATURE IN CELSIUS
  WCI - WIND CHILL INDEX
   HX - HEAT INDEX
  VSB - VISIBILITY





USA.gov is the U.S. government's official web portal to all federal, state and local government web resources and services.